Location: Unspecified
(0.0000°N, 0.0000°E)
Time: 07:38:20
(UTC+00:00)

N. Korean satellite - Pass Details

Date: 12 January 2019
Orbit: 455 x 511 km, 97.2° (Epoch: 18 March)

Event Time Altitude Azimuth Distance (km) Brightness Sun altitude
Rises 18:34:52 0° 198° (SSW) 2,486 10.8 -6.2°
Reaches altitude 10° 18:37:32 10° 221° (SW) 1,618 10.4 -6.8°
Maximum altitude 18:39:39 15° 259° (W) 1,325 10.2 -7.3°
Drops below altitude 10° 18:41:46 10° 297° (WNW) 1,629 9.9 -7.8°
Sets 18:44:29 0° 320° (NW) 2,515 10.4 -8.4°
